• Join FlightAware (Why Join?)
  • Login
  • US Flag 
02:13AM EDT


 

Airport Tracker/Info


-or-


 

Live Flight TrackerFlight Track Log ✈ N5166P ✈ 28/Mar/2014 ✈ KSEE - KSJC

Flight Track Log - Related Links

Times and Time Zones

All times are in EDT time to prevent confusion due to time zone crossing. See the N5166P flight status page for this flight to view local times or setup timezone preferences in your user account.

Time Position Orientation Groundspeed Altitude Reporting Facility
EDT Latitude Longitude Course Direction KTS MPH feet Rate Location/Type
08:28PM 32.8567 -117.0128 314° West 148 170 2,800  Level Los Angeles Center
08:29PM 32.8872 -117.0500 314° West 158 182 5,000 2,100 Climbing Los Angeles Center
08:30PM 32.9053 -117.1031 292° West 168 193 7,200 2,520 Climbing Los Angeles Center
08:31PM 32.9217 -117.1656 287° West 170 196 10,300 2,400 Climbing Los Angeles Center
08:32PM 32.9469 -117.2128 303° West 169 194 12,200 1,740 Climbing Los Angeles Center
08:33PM 32.9706 -117.2650 298° West 173 199 14,000 900 Climbing Los Angeles Center
08:34PM 33.0036 -117.3325 300° West 228 262 14,100  Climbing Los Angeles Center
08:35PM 33.0411 -117.4194 297° West 280 322 14,000  Descending Los Angeles Center
08:36PM 33.0761 -117.5111 295° West 291 335 14,100 960 Climbing Los Angeles Center
08:37PM 33.0981 -117.6072 285° West 262 302 16,100 1,740 Climbing Los Angeles Center
08:38PM 33.1269 -117.6797 295° West 246 283 17,700 1,380 Climbing Los Angeles Center
08:39PM 33.1647 -117.7494 303° West 247 284 19,000 1,320 Climbing Los Angeles Center
08:40PM 33.2011 -117.8208 301° West 247 284 20,500 1,440 Climbing Los Angeles Center
08:41PM 33.2458 -117.8856 310° West 250 288 22,000 1,440 Climbing Los Angeles Center
08:42PM 33.3006 -117.9647 310° West 253 291 23,500 2,040 Climbing Los Angeles Center
08:43PM 33.3422 -118.0250 310° West 239 275 26,300 2,100 Climbing Los Angeles Center
08:44PM 33.3781 -118.0772 309° West 211 243 27,900 1,560 Climbing Los Angeles Center
08:45PM 33.4139 -118.1308 309° West 208 239 29,600 960 Climbing Los Angeles Center
08:47PM 33.4539 -118.1886 310° West 216 249 30,000 180 Climbing Los Angeles Center
08:48PM 33.5036 -118.2631 309° West 268 308 30,000  Level Los Angeles Center
08:49PM 33.5700 -118.3636 308° West 309 356 30,000  Level Los Angeles Center
08:50PM 33.6308 -118.4531 309° West 333 383 30,000  Level Los Angeles Center
08:51PM 33.6928 -118.5442 309° West 342 394 30,000  Level Los Angeles Center
08:52PM 33.7533 -118.6331 309° West 341 392 30,000  Level Los Angeles Center
08:53PM 33.8139 -118.7225 309° West 341 392 30,000  Level Los Angeles Center
08:54PM 33.8733 -118.8125 309° West 342 394 30,000  Level Los Angeles Center
08:55PM 33.9336 -118.9025 309° West 343 395 30,000  Level Los Angeles Center
08:56PM 33.9939 -118.9928 309° West 343 395 30,000  Level Los Angeles Center
08:57PM 34.0669 -119.1017 309° West 345 397 30,000  Level Los Angeles Center
08:58PM 34.1278 -119.1933 309° West 349 402 30,000  Level Los Angeles Center
08:59PM 34.1875 -119.2856 308° West 350 403 30,000  Level Los Angeles Center
09:00PM 34.2492 -119.3775 309° West 350 403 30,000  Level Los Angeles Center
09:01PM 34.3103 -119.4694 309° West 350 403 30,000  Level Los Angeles Center
09:02PM 34.3803 -119.5514 316° Northwest 350 403 30,000  Level Los Angeles Center
09:03PM 34.4753 -119.6375 323° Northwest 354 407 30,000  Level Los Angeles Center
09:04PM 34.5564 -119.7086 324° Northwest 355 409 30,000  Level Los Angeles Center
09:05PM 34.6286 -119.7706 325° Northwest 355 409 30,000  Level Los Angeles Center
09:06PM 34.7239 -119.8556 324° Northwest 355 409 30,000  Level Los Angeles Center
09:07PM 34.8036 -119.9275 323° Northwest 354 407 30,000  Level Los Angeles Center
09:08PM 34.8825 -120.0000 323° Northwest 354 407 30,000  Level Los Angeles Center
09:09PM 34.9628 -120.0714 324° Northwest 355 409 30,000  Level Los Angeles Center
09:10PM 35.0428 -120.1431 324° Northwest 355 409 30,000  Level Los Angeles Center
09:11PM 35.1208 -120.2147 323° Northwest 355 409 30,000  Level Los Angeles Center
09:12PM 35.2139 -120.2989 324° Northwest 353 406 30,000  Level Los Angeles Center
09:13PM 35.2925 -120.3678 324° Northwest 351 404 30,000  Level Los Angeles Center
09:14PM 35.3700 -120.4419 322° Northwest 358 412 30,000  Level Los Angeles Center
09:15PM 35.4472 -120.5144 323° Northwest 359 413 30,000  Level Los Angeles Center
09:17PM 35.5253 -120.5861 323° Northwest 355 409 30,000  Level Los Angeles Center
09:18PM 35.6303 -120.6539 332° Northwest 355 409 30,000  Level Los Angeles Center
09:18PM 35.6761 -120.6850 331° Northwest 357 411 30,000 -180 Level Oakland Center
09:19PM 35.7644 -120.7392 334° Northwest 357 411 29,700 -840 Descending Oakland Center
09:20PM 35.8500 -120.7931 333° Northwest 346 398 28,400 -1,500 Descending Oakland Center
09:21PM 35.9475 -120.8553 333° Northwest 331 381 26,700 -1,440 Descending Oakland Center
09:22PM 36.0264 -120.9058 333° Northwest 322 371 25,500 -1,200 Descending Oakland Center
09:23PM 36.1042 -120.9553 333° Northwest 317 365 24,300 -1,200 Descending Oakland Center
09:24PM 36.1797 -121.0050 332° Northwest 311 358 23,100 -1,200 Descending Oakland Center
09:25PM 36.2553 -121.0528 333° Northwest 309 356 21,900 -1,200 Descending Oakland Center
09:26PM 36.3292 -121.1014 332° Northwest 304 350 20,700 -1,140 Descending Oakland Center
09:27PM 36.4017 -121.1478 333° Northwest 298 343 19,600 -1,080 Descending Oakland Center
09:28PM 36.4750 -121.1939 333° Northwest 297 342 18,500 -1,080 Descending Oakland Center
09:29PM 36.5308 -121.2661 314° West 288 331 17,400 -1,260 Descending Oakland Center
09:30PM 36.5900 -121.3350 317° Northwest 289 333 16,000 -1,500 Descending Oakland Center
09:31PM 36.6569 -121.4181 315° West 288 331 14,400 -1,440 Descending Oakland Center
09:32PM 36.7094 -121.4828 315° West 273 314 13,100 -1,260 Descending Oakland Center
09:33PM 36.7606 -121.5486 314° West 268 308 11,900 -1,200 Descending Oakland Center
09:35PM 36.8103 -121.6108 315° West 261 300 10,700 -1,200 Descending Oakland Center
09:36PM 36.8603 -121.6761 314° West 259 298 9,500 -1,200 Descending Oakland Center
09:37PM 36.9167 -121.7500 314° West 257 296 8,200 -780 Descending Northern Cal TRACON
09:38PM 36.9689 -121.7875 330° Northwest 256 295 8,000 -120 Descending Oakland Center
09:39PM 37.0269 -121.8156 339° North 231 266 8,000 -300 Level Oakland Center
09:40PM 37.0797 -121.8481 334° Northwest 220 253 7,500 -900 Descending Oakland Center
09:41PM 37.1333 -121.8833 332° Northwest 234 269 6,300 -1,200 Descending Northern Cal TRACON
09:42PM 37.1972 -121.9189 336° Northwest 233 268 5,100 -840 Descending Oakland Center
09:43PM 37.2650 -121.9597 334° Northwest 228 262 4,600 -900 Descending Oakland Center
09:44PM 37.3178 -121.9936 333° Northwest 219 252 3,300 -1,320 Descending Oakland Center
09:45PM 37.3653 -122.0167 339° North 199 229 2,000 -1,020 Descending Oakland Center
09:46PM 37.4000 -121.9833 37° Northeast 151 174 1,400 -900 Descending Northern Cal TRACON
09:47PM 37.3833 -121.9500 122° Southeast 132 152 300 -1,140 Descending Northern Cal TRACON